Miscellaneous Local Product
Issued by NWS Hastings, NE

Home | Current Version | Previous Version | Text Only | Print | Product List | Glossary On
Versions: 1 2 3 4 5 6 7 8 9 10 11 12 13 14 15 16 17 18 19 20 21 22 23 24 25 26 27 28 29 30 31 32 33 34 35 36 37 38 39 40 41 42 43 44 45 46 47 48 49 50
000
AXUS43 KGID 162002
MISGRI

GID CWA HOURLY WEATHER ROUNDUP
NATIONAL WEATHER SERVICE HASTINGS NE
300 PM CDT TUE SEP 16 2014

NOTE: "FAIR" INDICATES FEW OR NO CLOUDS BELOW 12,000 FEET WITH NO
SIGNIFICANT WEATHER AND/OR OBSTRUCTIONS TO VISIBILITY.

...SOUTH CENTRAL NEBRASKA...

CITY           SKY/WX    TMP DP  RH WIND       PRES   REMARKS
GRAND ISLAND   PTSUNNY   70  54  56 S10       30.07F
HASTINGS       CLOUDY    66  51  58 S12       30.07F
KEARNEY        CLOUDY    64  54  68 SE15      30.07F
ORD            CLOUDY    68  55  63 S13       30.02F
YORK           SUNNY     68  50  52 S9        30.08F
AURORA         MOSUNNY   70  48  44 S12G17    30.07F
LEXINGTON      CLOUDY    66  58  74 S12       30.04F
HOLDREGE       CLOUDY    66  54  64 S13G21    30.06F
HEBRON         CLOUDY    70  46  42 S8        30.08F

...NEBRASKA PANHANDLE...

CITY           SKY/WX    TMP DP  RH WIND       PRES   REMARKS
CHADRON        MOSUNNY   80  48  32 W6        30.00S
ALLIANCE       MOSUNNY   83  45  26 NW7       30.03F
SCOTTSBLUFF    MOSUNNY   83  50  31 W10       30.05F
SIDNEY         MOSUNNY   85  42  22 N12       30.08R

...WESTERN AND NORTH CENTRAL NEBRASKA...

CITY           SKY/WX    TMP DP  RH WIND       PRES   REMARKS
VALENTINE      MOSUNNY   79  56  45 SW5       29.97F
AINSWORTH      MOSUNNY   75  56  51 SW9       29.98F
ONEILL         PTSUNNY   69  57  65 S15G23    30.02F
BROKEN BOW     CLOUDY    66  55  67 S15G21    30.04F
IMPERIAL       SUNNY     82  54  37 SW6       30.00F
NORTH PLATTE   SUNNY     73  57  57 VRB7G21   30.01F
MCCOOK         SUNNY     75  57  53 S16G22    30.02F

...EASTERN NEBRASKA...

CITY           SKY/WX    TMP DP  RH WIND       PRES   REMARKS
NORFOLK        MOSUNNY   69  48  47 S14       30.06F
SO SIOUX CITY  SUNNY     69  48  47 S8        30.08F
TEKAMAH        SUNNY     68  47  46 S8G17     30.09F
ALBION         MOSUNNY   68  52  56 S13G20    30.06F
OMAHA EPPLEY   MOSUNNY   67  48  50 SE9       30.11F
OFFUTT AFB     SUNNY     67  53  61 SE7       30.10F
MILLARD        SUNNY     67  50  53 SW6       30.10F
LINCOLN        SUNNY     70  47  43 S9        30.10F
NEBRASKA CITY  SUNNY     67  41  38 S6        30.11F
BEATRICE       SUNNY     69  48  46 S7        30.10F
FALLS CITY     SUNNY     70  50  49 S7        30.11F

...NORTHERN KANSAS...

CITY           SKY/WX    TMP DP  RH WIND       PRES   REMARKS
GOODLAND       SUNNY     81  56  42 S14       30.05F
HILL CITY      CLOUDY    70  57  63 S14G21    30.07F
NORTON         CLOUDY    70  52  52 S16       30.04F
PHILLIPSBURG   CLOUDY    70  54  56 SE10G17   30.07F
SMITH CENTER   CLOUDY    68  52  56 S10       30.08F
BELOIT         CLOUDY    68  50  52 SE10      30.07F
HAYS           CLOUDY    72  57  60 S14       30.07F
RUSSELL        MOSUNNY   71  57  61 S10       30.07F
CONCORDIA      CLOUDY    67  50  54 S9        30.09F
SALINA         MOSUNNY   73  51  46 SE8       30.10F
TOPEKA         SUNNY     72  51  47 SW7       30.12F



USA.gov is the U.S. government's official web portal to all federal, state and local government web resources and services.